| time (UTC) | temp F | wind direction | speed knots | gust knots | rain 1hr in | rain 24hr in | rain mn in | humidity % | barometer mb |
| 20260505010541 | 68 | 0.0 | 0.0 | 0.00 | 0.00 | 0.00 | 42 | 1009.5 | |
| 20260505010040 | 69 | 0.0 | 0.0 | 0.00 | 0.00 | 0.00 | 42 | 1009.6 | |
| 20260505005539 | 69 | 0.0 | 0.0 | 0.00 | 0.00 | 0.00 | 42 | 1009.4 | |
| 20260505005039 | 69 | 0.0 | 0.0 | 0.00 | 0.00 | 0.00 | 42 | 1009.4 | |
| 20260505004540 | 69 | 0.0 | 0.0 | 0.00 | 0.00 | 0.00 | 41 | 1009.3 | |
| 20260505004034 | 69 | 0.0 | 0.0 | 0.00 | 0.00 | 0.00 | 41 | 1009.3 | |
| 20260505003533 | 69 | 0.0 | 0.0 | 0.00 | 0.00 | 0.00 | 41 | 1009.3 | |
| 20260505003032 | 69 | 0.0 | 0.0 | 0.00 | 0.00 | 0.00 | 40 | 1009.4 | |
| 20260505002530 | 70 | 0.0 | 0.0 | 0.00 | 0.00 | 0.00 | 40 | 1009.5 | |
| 20260505002031 | 70 | 0.0 | 0.0 | 0.00 | 0.00 | 0.00 | 39 | 1009.4 | |
| 20260505001528 | 70 | 0.0 | 0.0 | 0.00 | 0.00 | 0.00 | 38 | 1009.4 | |
| 20260505001025 | 71 | 0.0 | 0.0 | 0.00 | 0.00 | 0.00 | 38 | 1009.2 | |
| 20260505000525 | 71 | 0.0 | 0.0 | 0.00 | 0.00 | 0.00 | 37 | 1009.3 | |
| 20260505000029 | 71 | 0.0 | 0.0 | 0.00 | 0.00 | 0.00 | 36 | 1009.3 | |
| 20260504235521 | 72 | 0.0 | 0.0 | 0.00 | 0.00 | 0.00 | 36 | 1009.2 | |
| 20260504235020 | 72 | 0.0 | 0.0 | 0.00 | 0.00 | 0.00 | 35 | 1009.2 | |
| 20260504234519 | 72 | 0.0 | 0.0 | 0.00 | 0.00 | 0.00 | 34 | 1009.3 | |
| 20260504234016 | 73 | 0.0 | 0.0 | 0.00 | 0.00 | 0.00 | 34 | 1009.4 | |
| 20260504233515 | 73 | 0.0 | 0.0 | 0.00 | 0.00 | 0.00 | 33 | 1009.2 | |
| 20260504233014 | 73 | 0.0 | 0.0 | 0.00 | 0.00 | 0.00 | 32 | 1009.3 | |
| 20260504232513 | 74 | 0.0 | 0.0 | 0.00 | 0.00 | 0.00 | 32 | 1009.2 | |
| 20260504232011 | 74 | 0.0 | 0.0 | 0.00 | 0.00 | 0.00 | 31 | 1009.3 | |
| 20260504231509 | 74 | 0.0 | 0.0 | 0.00 | 0.00 | 0.00 | 31 | 1009.2 | |
| 20260504231008 | 75 | 0.0 | 0.0 | 0.00 | 0.00 | 0.00 | 31 | 1009.2 | |
| 20260504230506 | 75 | 0.0 | 0.0 | 0.00 | 0.00 | 0.00 | 31 | 1009.4 | |
| 20260504230011 | 76 | 0.0 | 0.0 | 0.00 | 0.00 | 0.00 | 31 | 1009.4 | |
| 20260504225505 | 76 | 0.0 | 0.0 | 0.00 | 0.00 | 0.00 | 31 | 1009.3 | |
| 20260504225002 | 76 | 0.0 | 0.0 | 0.00 | 0.00 | 0.00 | 31 | 1009.2 | |
| 20260504224501 | 77 | 0.0 | 0.0 | 0.00 | 0.00 | 0.00 | 31 | 1009.2 | |
| 20260504224100 | 77 | 0.0 | 0.0 | 0.00 | 0.00 | 0.00 | 30 | 1009.1 | |
| 20260504223558 | 78 | 0.0 | 0.0 | 0.00 | 0.00 | 0.00 | 29 | 1009.0 | |
| 20260504223057 | 78 | 0.0 | 0.0 | 0.00 | 0.00 | 0.00 | 29 | 1009.1 | |
| 20260504222556 | 78 | 0.0 | 0.0 | 0.00 | 0.00 | 0.00 | 28 | 1009.1 | |
| 20260504222053 | 78 | 0.0 | 0.0 | 0.00 | 0.00 | 0.00 | 28 | 1009.1 | |
| 20260504221555 | 79 | 0.0 | 0.0 | 0.00 | 0.00 | 0.00 | 28 | 1009.1 | |
| 20260504221052 | 79 | 0.0 | 0.0 | 0.00 | 0.00 | 0.00 | 27 | 1009.2 | |
| 20260504220551 | 79 | 0.0 | 0.0 | 0.00 | 0.00 | 0.00 | 27 | 1009.0 | |
| 20260504220048 | 79 | 0.0 | 0.0 | 0.00 | 0.00 | 0.00 | 28 | 1009.0 | |
| 20260504215547 | 80 | 0.0 | 0.0 | 0.00 | 0.00 | 0.00 | 27 | 1009.1 | |
| 20260504215045 | 80 | 0.0 | 0.0 | 0.00 | 0.00 | 0.00 | 27 | 1009.1 | |
| 20260504214544 | 80 | 0.0 | 0.0 | 0.00 | 0.00 | 0.00 | 27 | 1009.0 | |
| 20260504214042 | 81 | 0.0 | 0.0 | 0.00 | 0.00 | 0.00 | 26 | 1009.0 | |
| 20260504213541 | 81 | 0.0 | 0.0 | 0.00 | 0.00 | 0.00 | 26 | 1009.1 | |
| 20260504213055 | 81 | 0.0 | 0.0 | 0.00 | 0.00 | 0.00 | 25 | 1009.0 | |
| 20260504212538 | 81 | 0.0 | 0.0 | 0.00 | 0.00 | 0.00 | 25 | 1009.0 | |
| 20260504212040 | 82 | 0.0 | 0.0 | 0.00 | 0.00 | 0.00 | 24 | 1009.0 | |
| 20260504211538 | 81 | 0.0 | 0.0 | 0.00 | 0.00 | 0.00 | 22 | 1009.0 | |
| 20260504211034 | 81 | 0.0 | 0.0 | 0.00 | 0.00 | 0.00 | 21 | 1009.0 | |
| 20260504210534 | 81 | 0.0 | 0.0 | 0.00 | 0.00 | 0.00 | 22 | 1008.9 | |
| 20260504210031 | 81 | 0.0 | 0.0 | 0.00 | 0.00 | 0.00 | 22 | 1009.0 | |
| 20260504205529 | 81 | 0.0 | 0.0 | 0.00 | 0.00 | 0.00 | 22 | 1008.9 | |
| 20260504205027 | 81 | 0.0 | 0.0 | 0.00 | 0.00 | 0.00 | 21 | 1009.0 | |
| 20260504204529 | 81 | 0.0 | 0.0 | 0.00 | 0.00 | 0.00 | 22 | 1009.2 | |
| 20260504204025 | 81 | 0.0 | 0.0 | 0.00 | 0.00 | 0.00 | 23 | 1009.4 | |
| 20260504203524 | 81 | 0.0 | 0.0 | 0.00 | 0.00 | 0.00 | 21 | 1009.4 | |
| 20260504203022 | 81 | 0.0 | 0.0 | 0.00 | 0.00 | 0.00 | 22 | 1009.5 | |
| 20260504202522 | 81 | 0.0 | 0.0 | 0.00 | 0.00 | 0.00 | 23 | 1009.4 | |
| 20260504202019 | 81 | 0.0 | 0.0 | 0.00 | 0.00 | 0.00 | 23 | 1009.5 | |
| 20260504201524 | 81 | 0.0 | 0.0 | 0.00 | 0.00 | 0.00 | 22 | 1009.4 | |
| 20260504201020 | 81 | 0.0 | 0.0 | 0.00 | 0.00 | 0.00 | 24 | 1009.6 | |
| 20260504200516 | 80 | 0.0 | 0.0 | 0.00 | 0.00 | 0.00 | 24 | 1009.6 | |
| 20260504200016 | 80 | 0.0 | 0.0 | 0.00 | 0.00 | 0.00 | 24 | 1009.7 | |
| 20260504195511 | 80 | 0.0 | 0.0 | 0.00 | 0.00 | 0.00 | 24 | 1009.8 | |
| 20260504195010 | 80 | 0.0 | 0.0 | 0.00 | 0.00 | 0.00 | 22 | 1009.9 | |
| 20260504194511 | 80 | 0.0 | 0.0 | 0.00 | 0.00 | 0.00 | 23 | 1010.0 | |
| 20260504194008 | 80 | 0.0 | 0.0 | 0.00 | 0.00 | 0.00 | 24 | 1010.1 | |
| 20260504193506 | 80 | 0.0 | 0.0 | 0.00 | 0.00 | 0.00 | 22 | 1010.4 | |
| 20260504193005 | 80 | 0.0 | 0.0 | 0.00 | 0.00 | 0.00 | 24 | 1010.4 | |
| 20260504192503 | 79 | 0.0 | 0.0 | 0.00 | 0.00 | 0.00 | 24 | 1010.4 | |
| 20260504192002 | 79 | 0.0 | 0.0 | 0.00 | 0.00 | 0.00 | 24 | 1010.4 | |
| 20260504191501 | 79 | 0.0 | 0.0 | 0.00 | 0.00 | 0.00 | 25 | 1010.6 | |
| 20260504191101 | 79 | 0.0 | 0.0 | 0.00 | 0.00 | 0.00 | 26 | 1010.7 | |
| 20260504190601 | 79 | 0.0 | 0.0 | 0.00 | 0.00 | 0.00 | 24 | 1010.6 | |
| 20260504190115 | 79 | 0.0 | 0.0 | 0.00 | 0.00 | 0.00 | 23 | 1010.7 | |
| 20260504185554 | 79 | 0.0 | 0.0 | 0.00 | 0.00 | 0.00 | 26 | 1010.7 | |
| 20260504185053 | 79 | 0.0 | 0.0 | 0.00 | 0.00 | 0.00 | 24 | 1010.8 | |
| 20260504184600 | 79 | 0.0 | 0.0 | 0.00 | 0.00 | 0.00 | 25 | 1010.8 | |
| 20260504184051 | 79 | 0.0 | 0.0 | 0.00 | 0.00 | 0.00 | 23 | 1010.9 | |
| 20260504183554 | 79 | 0.0 | 0.0 | 0.00 | 0.00 | 0.00 | 23 | 1011.0 | |
| 20260504183048 | 79 | 0.0 | 0.0 | 0.00 | 0.00 | 0.00 | 25 | 1011.0 | |
| 20260504182550 | 79 | 0.0 | 0.0 | 0.00 | 0.00 | 0.00 | 23 | 1011.1 | |
| 20260504182046 | 79 | 0.0 | 0.0 | 0.00 | 0.00 | 0.00 | 23 | 1011.1 | |
| 20260504181545 | 79 | 0.0 | 0.0 | 0.00 | 0.00 | 0.00 | 22 | 1011.1 | |
| 20260504181042 | 79 | 0.0 | 0.0 | 0.00 | 0.00 | 0.00 | 23 | 1011.2 | |
| 20260504180544 | 79 | 0.0 | 0.0 | 0.00 | 0.00 | 0.00 | 23 | 1011.1 | |
| 20260504180039 | 78 | 0.0 | 0.0 | 0.00 | 0.00 | 0.00 | 23 | 1011.2 | |
| 20260504175537 | 78 | 0.0 | 0.0 | 0.00 | 0.00 | 0.00 | 23 | 1011.4 | |
| 20260504175040 | 78 | 0.0 | 0.0 | 0.00 | 0.00 | 0.00 | 24 | 1011.6 | |
| 20260504174535 | 78 | 0.0 | 0.0 | 0.00 | 0.00 | 0.00 | 24 | 1011.6 | |
| 20260504174033 | 77 | 0.0 | 0.0 | 0.00 | 0.00 | 0.00 | 26 | 1011.7 | |
| 20260504173532 | 77 | 0.0 | 0.0 | 0.00 | 0.00 | 0.00 | 25 | 1011.8 | |
| 20260504173037 | 77 | 0.0 | 0.0 | 0.00 | 0.00 | 0.00 | 25 | 1011.8 | |
| 20260504172529 | 76 | 0.0 | 0.0 | 0.00 | 0.00 | 0.00 | 26 | 1011.9 | |
| 20260504172027 | 76 | 0.0 | 0.0 | 0.00 | 0.00 | 0.00 | 24 | 1011.9 | |
| 20260504171526 | 76 | 0.0 | 0.0 | 0.00 | 0.00 | 0.00 | 24 | 1012.1 | |
| 20260504171028 | 76 | 0.0 | 0.0 | 0.00 | 0.00 | 0.00 | 25 | 1012.1 | |
| 20260504170523 | 76 | 0.0 | 0.0 | 0.00 | 0.00 | 0.00 | 24 | 1012.1 | |
| 20260504151049 | 71 | 0.0 | 0.0 | 0.00 | 0.00 | 0.00 | 27 | 1013.4 | |
| 20260504150549 | 71 | 0.0 | 0.0 | 0.00 | 0.00 | 0.00 | 28 | 1013.5 | |
| 20260504141032 | 65 | 0.0 | 0.0 | 0.00 | 0.00 | 0.00 | 36 | 1013.6 | |
| 20260504140531 | 65 | 0.0 | 0.0 | 0.00 | 0.00 | 0.00 | 37 | 1013.7 | |
| 20260504130513 | 59 | 0.0 | 0.0 | 0.00 | 0.00 | 0.00 | 45 | 1014.0 | |
| 20260504110538 | 51 | 0.0 | 0.0 | 0.00 | 0.00 | 0.00 | 57 | 1014.7 | |
| 20260504100521 | 51 | 0.0 | 0.0 | 0.00 | 0.00 | 0.00 | 56 | 1014.6 | |
| 20260504081551 | 51 | 0.0 | 0.0 | 0.00 | 0.00 | 0.00 | 52 | 1015.2 | |
| 20260504081047 | 51 | 0.0 | 0.0 | 0.00 | 0.00 | 0.00 | 52 | 1015.1 | |
| 20260504080548 | 51 | 0.0 | 0.0 | 0.00 | 0.00 | 0.00 | 52 | 1015.1 | |
| 20260504050554 | 50 | 0.0 | 0.0 | 0.00 | 0.00 | 0.00 | 47 | 1015.2 | |
| 20260504045553 | 49 | 0.0 | 0.0 | 0.00 | 0.00 | 0.00 | 47 | 1015.4 | |
| 20260504045049 | 49 | 0.0 | 0.0 | 0.00 | 0.00 | 0.00 | 48 | 1015.4 | |
| 20260504044559 | 49 | 0.0 | 0.0 | 0.00 | 0.00 | 0.00 | 48 | 1015.3 | |
| 20260504044047 | 49 | 0.0 | 0.0 | 0.00 | 0.00 | 0.00 | 48 | 1015.3 | |
| 20260504043545 | 48 | 0.0 | 0.0 | 0.00 | 0.00 | 0.00 | 49 | 1015.3 | |
| 20260504043045 | 48 | 0.0 | 0.0 | 0.00 | 0.00 | 0.00 | 49 | 1015.3 | |
| 20260504042542 | 48 | 0.0 | 0.0 | 0.00 | 0.00 | 0.00 | 49 | 1015.3 | |
| 20260504042041 | 48 | 0.0 | 0.0 | 0.00 | 0.00 | 0.00 | 50 | 1015.2 | |
| 20260504041539 | 47 | 0.0 | 0.0 | 0.00 | 0.00 | 0.00 | 50 | 1015.2 | |
| 20260504041038 | 47 | 0.0 | 0.0 | 0.00 | 0.00 | 0.00 | 51 | 1015.2 | |
| 20260504040537 | 47 | 0.0 | 0.0 | 0.00 | 0.00 | 0.00 | 51 | 1015.2 | |
| 20260504040035 | 48 | 0.0 | 0.0 | 0.00 | 0.00 | 0.00 | 51 | 1015.2 | |
| 20260504035534 | 48 | 0.0 | 0.0 | 0.00 | 0.00 | 0.00 | 52 | 1015.3 | |
| 20260504035032 | 48 | 0.0 | 0.0 | 0.00 | 0.00 | 0.00 | 52 | 1015.3 | |
| 20260504034539 | 48 | 0.0 | 0.0 | 0.00 | 0.00 | 0.00 | 51 | 1015.1 | |
| 20260504034030 | 48 | 0.0 | 0.0 | 0.00 | 0.00 | 0.00 | 50 | 1015.1 | |
| 20260504033528 | 48 | 0.0 | 0.0 | 0.00 | 0.00 | 0.00 | 48 | 1015.1 | |
| 20260504033037 | 48 | 0.0 | 0.0 | 0.00 | 0.00 | 0.00 | 48 | 1015.0 | |
| 20260504032525 | 49 | 0.0 | 0.0 | 0.00 | 0.00 | 0.00 | 48 | 1014.9 | |
| 20260504032026 | 49 | 0.0 | 0.0 | 0.00 | 0.00 | 0.00 | 48 | 1014.9 | |
| 20260504031524 | 49 | 0.0 | 0.0 | 0.00 | 0.00 | 0.00 | 47 | 1014.8 | |
| 20260504031020 | 49 | 0.0 | 0.0 | 0.00 | 0.00 | 0.00 | 47 | 1014.5 | |
| 20260504030519 | 49 | 0.0 | 0.0 | 0.00 | 0.00 | 0.00 | 46 | 1014.6 | |
| 20260504030017 | 50 | 0.0 | 0.0 | 0.00 | 0.00 | 0.00 | 45 | 1014.8 | |
| 20260504025516 | 50 | 0.0 | 0.0 | 0.00 | 0.00 | 0.00 | 45 | 1014.8 | |
| 20260504025014 | 50 | 0.0 | 0.0 | 0.00 | 0.00 | 0.00 | 44 | 1014.6 | |
| 20260504024518 | 50 | 0.0 | 0.0 | 0.00 | 0.00 | 0.00 | 44 | 1014.7 | |
| 20260504024013 | 51 | 0.0 | 0.0 | 0.00 | 0.00 | 0.00 | 44 | 1014.6 | |
| 20260504023513 | 51 | 0.0 | 0.0 | 0.00 | 0.00 | 0.00 | 42 | 1014.6 | |
| 20260504023009 | 51 | 0.0 | 0.0 | 0.00 | 0.00 | 0.00 | 42 | 1014.6 | |
| 20260504022513 | 51 | 0.0 | 0.0 | 0.00 | 0.00 | 0.00 | 41 | 1014.5 | |
| 20260504022005 | 52 | 0.0 | 0.0 | 0.00 | 0.00 | 0.00 | 41 | 1014.6 | |
| 20260504021504 | 52 | 0.0 | 0.0 | 0.00 | 0.00 | 0.00 | 40 | 1014.6 | |
| 20260504021004 | 52 | 0.0 | 0.0 | 0.00 | 0.00 | 0.00 | 40 | 1014.5 | |
| 20260504020502 | 52 | 0.0 | 0.0 | 0.00 | 0.00 | 0.00 | 39 | 1014.5 | |
| 20260504020100 | 53 | 0.0 | 0.0 | 0.00 | 0.00 | 0.00 | 39 | 1014.5 | |
| 20260504015559 | 53 | 0.0 | 0.0 | 0.00 | 0.00 | 0.00 | 38 | 1014.5 | |
| 20260504015100 | 53 | 0.0 | 0.0 | 0.00 | 0.00 | 0.00 | 39 | 1014.5 | |
| 20260504014556 | 54 | 0.0 | 0.0 | 0.00 | 0.00 | 0.00 | 37 | 1014.5 | |
| 20260504014058 | 54 | 0.0 | 0.0 | 0.00 | 0.00 | 0.00 | 37 | 1014.5 | |
| 20260504013553 | 55 | 0.0 | 0.0 | 0.00 | 0.00 | 0.00 | 36 | 1014.4 | |
| 20260504013053 | 55 | 0.0 | 0.0 | 0.00 | 0.00 | 0.00 | 35 | 1014.4 | |
| 20260504012551 | 55 | 0.0 | 0.0 | 0.00 | 0.00 | 0.00 | 34 | 1014.4 | |
| 20260504012049 | 56 | 0.0 | 0.0 | 0.00 | 0.00 | 0.00 | 33 | 1014.4 | |
| 20260504011550 | 56 | 0.0 | 0.0 | 0.00 | 0.00 | 0.00 | 33 | 1014.3 | |
| 20260504011047 | 56 | 0.0 | 0.0 | 0.00 | 0.00 | 0.00 | 33 | 1014.3 |